Location: La B�doule
(43.2468°N, 5.5934°E)
Time: 20:51:17
(UTC+00:00)

Meteor 2-10 Rocket - Pass Details

Date: 07 June 2020
Orbit: 733 x 885 km, 81.2° (Epoch: 13 July)

Event Time Altitude Azimuth Distance (km) Brightness Sun altitude
Rises 00:27:09 0° 346° (NNW) 3,237 7.8 -23.0°
Reaches altitude 10° 00:29:34 10° 343° (NNW) 2,289 6.8 -22.9°
Maximum altitude 00:34:35 61° 264° (W) 841 3.5 -22.6°
Enters shadow 00:35:18 55° 226° (SW) 891 3.5 -22.6°
